Showing default

COSMOS 2016, 19921

Orbit data source: Space-Track

COSMOS 2016, 19921 is a payload satellite owned by VMF (CIS) in LEO that was launched on Tue, 04 Apr 1989 UTC via a KOSMOS 11K65M launch vehicle from the Plesetsk Missile And Space Complex (PKMTR). Payload-class satellites include a variety of spacecraft equipped with specific instruments for various scientific and technological missions. These include communications satellites like Starlink; space stations such as the ISS; scientific satellites like the Hubble; Earth observation satellites from companies like Planet Labs, Umbra, and HawkEye 360; GPS; miniature CubeSats for education and research; and military/defense satellites.

Loading next visibility...
Identifier
19921, 1989-028A
Orbit
LEO
Country
Flag of CISCIS
Related business
Manufacturer
Omsk Av. Zav.
Mission
Defense Navigation
Bus & Motor
KAUR-1 11F627, Unknown motor
Mass
800 kg wet, 800 kg dry
Launch date (UTC)
1989-04-04 (37 years ago)
Launch vehicle
KOSMOS 11K65M
Launch site
Plesetsk Missile And Space Complex (PKMTR)
Object type
Payload
Rocket body
Debris
Shape & HBR
Cyl, 2.5 m
Radar Cross Section
9.978 m², Large (>1 m²)

Expand to show TLE details & history
Last TLE update: 2 days ago

TLE from 2 days ago
0 COSMOS 2016
1 19921U 89028A   26171.45454855  .00000034  00000-0  18883-4 0  9995
2 19921  82.9610 185.1138 0039647 180.4750 297.8938 13.75344167866323
Epoch: 2026-06-20T10:54Z
TLE epoch observation values (Epoch: 2026-06-20T10:54:32.994Z)
Latitude
61.32278°
Longitude
-80.17031°
Altitude
977.37 km
Speed
7.376 km/s
True Right ascension
23h 28m 32s
True Declination
61° 10' 55"
Sunlit
Object was in daylight at epoch
Visualization orbit readout
Latitude
Unknown
Longitude
Unknown
Altitude
Unknown
Speed
Unknown
Apparent Right ascension
Unknown
Apparent Declination
Unknown
Sunlit
N/A
Visualization observer readout
Local Sidereal Time
23:21:50
Azimuth
Unknown
Elevation
Unknown
Doppler factor
Unknown
Orbital elements
Apogee altitude
1,006.758 km
Perigee altitude
948.431 km
Semi-major axis
7,355.732 km
Eccentricity
0.00396
Inclination
82.961°
RAAN
185.1138°
Arg. of periapsis
180.475°
True anomaly
297.49133°
Mean anomaly
297.8938°
Eccentric anomaly
297.69266°
Mean motion
3.44036 °/min
Orbital period
104.64 mins
BSTAR
0.000018883
Loading maneuver chart data...
Computing Atmospheric mass density...
Loading historical data...
Loading historical data...
Loading historical data...
Loading historical data...
Loading historical data...
Loading historical data...
Loading historical data...
Other satellites on launch #28 in the year 1989 (1989-04-04 UTC)

Documentation

Showing up to 5 results
|